Wind_Speed
19 18 17 17 16 14 13 13 13 13 12 10 9 9 10 11 10 11 11 11 12 12 12 12 12 12 12 12 11 10 9 7 7 9 11 12 14 15 15 15 15 15 15 15
22 21 20 19 17 16 15 14 14 14 13 11 10 10 11 12 12 12 12 12 12 13 12 12 12 13 12 11 11 9 8 7 7 9 11 13 14 15 15 15 15 16 16 15
24 23 22 20 19 17 16 16 16 16 14 13 11 11 12 13 13 12 12 13 13 13 13 11 12 13 13 11 10 9 8 7 7 9 11 12 13 14 14 15 16 17 17 16
27 25 24 23 21 19 19 18 17 16 14 14 11 10 14 13 12 12 13 14 14 13 12 11 12 12 12 11 10 9 8 6 7 8 10 11 12 14 15 16 17 17 17 17
28 27 25 24 22 22 21 19 18 16 14 14 13 11 13 13 12 13 13 13 13 12 12 12 11 11 11 10 10 9 8 6 6 8 9 10 12 14 16 16 17 18 18 17
30 27 26 24 24 23 22 19 18 16 15 14 14 12 12 13 12 12 12 12 11 11 10 10 10 10 10 10 9 8 7 6 6 7 9 10 11 14 15 17 18 18 18 18
30 28 27 25 24 23 21 19 17 16 15 14 15 13 13 13 11 11 11 10 10 10 10 10 10 9 9 9 8 8 7 6 5 6 8 9 10 12 15 17 18 18 18 18
30 29 27 25 24 24 22 20 18 15 13 14 16 14 14 13 11 11 10 10 9 9 9 9 9 9 9 8 8 7 7 6 5 6 7 9 10 11 13 16 18 18 18 18
30 29 28 27 26 25 24 21 19 18 17 15 15 15 14 13 12 11 11 10 9 8 8 8 8 9 9 8 7 7 7 6 5 5 6 7 9 11 13 15 17 17 18 18
31 31 29 28 28 27 25 23 22 20 18 16 15 14 13 13 12 12 11 10 9 9 8 8 9 8 8 8 7 7 7 6 5 5 6 7 9 10 13 14 15 16 16 17
31 31 30 29 28 26 25 24 23 21 20 16 13 14 14 13 12 11 11 10 9 8 9 8 8 8 7 7 7 7 7 7 6 6 6 7 8 10 12 13 14 15 16 17
29 29 29 28 28 27 25 24 22 21 20 17 14 14 15 13 12 12 11 11 10 9 9 9 9 9 9 9 9 8 8 8 8 7 7 8 8 9 11 13 14 15 16 17
29 29 28 27 28 27 25 24 22 20 19 18 15 15 16 14 14 13 13 13 12 12 11 11 11 11 11 10 10 10 10 9 8 8 8 9 10 11 12 13 14 15 16 17
28 28 26 23 22 23 23 23 22 21 20 18 16 16 17 15 15 15 14 14 14 14 13 12 12 13 13 12 12 12 12 11 10 10 10 10 11 12 13 14 14 15 16 17
29 28 27 26 25 23 22 22 22 22 20 18 17 17 17 17 16 15 15 15 15 15 15 14 13 14 14 13 13 13 13 13 12 12 12 12 12 13 14 14 15 16 16 17
30 29 27 27 26 25 25 24 23 22 22 20 19 19 19 18 17 16 15 16 16 16 16 15 15 15 15 14 14 14 14 14 14 14 14 14 14 14 15 15 17 17 18 19
31 30 28 27 26 26 26 26 25 24 22 21 20 20 19 18 18 17 17 16 17 17 18 17 16 16 16 16 16 16 16 15 15 15 15 15 16 17 17 17 18 18 19 19
32 30 29 27 27 27 26 26 25 24 23 22 22 21 20 19 19 19 19 19 19 18 19 19 18 17 17 17 17 17 16 16 16 16 17 18 18 18 19 19 19 20 21 21
33 31 30 29 27 28 30 27 26 26 26 25 24 23 22 21 21 21 20 21 21 20 20 20 20 20 20 19 19 18 18 18 18 19 19 19 20 20 20 20 20 21 22 23
34 33 32 32 28 27 29 28 26 27 28 26 25 24 23 22 23 22 21 21 22 22 22 22 22 22 22 22 21 21 20 20 20 20 21 21 22 22 22 22 22 22 22 23
35 34 34 33 31 30 31 28 27 29 28 26 25 25 24 24 24 23 22 22 23 23 23 24 24 24 24 24 24 23 23 22 22 22 22 23 23 23 23 23 23 23 23 23
35 35 35 33 32 33 32 30 30 30 29 28 27 26 26 25 24 24 24 24 24 24 24 25 25 25 25 26 26 25 25 24 23 23 23 23 24 25 24 24 24 24 24 24
35 35 34 34 34 34 32 31 30 29 30 29 28 28 27 26 26 25 25 25 25 25 25 25 26 26 26 26 26 26 25 25 24 24 24 24 24 24 25 25 25 25 25 24
34 34 34 34 33 33 32 30 29 29 29 28 28 28 27 26 25 25 24 24 25 25 25 25 26 26 26 26 25 25 24 24 24 25 25 26 26 25 25 25 25 26 26 26
33 33 33 33 32 32 31 31 30 30 29 29 28 27 26 26 25 25 25 25 25 25 25 25 26 26 26 26 25 24 24 24 25 25 25 25 26 27 28 27 26 26 26 27
31 31 31 32 31 31 31 30 30 30 30 29 28 27 27 27 26 25 25 25 25 26 25 24 25 25 25 25 26 25 25 25 25 25 24 24 24 24 25 25 26 27 27 28
Wind_Direction
250 252 252 254 257 259 264 271 278 284 292 297 295 291 292 295 294 293 294 297 299 306 310 313 319 325 325 323 319 309 298 273 248 233 218 211 210 210 210 207 205 201 199 200
249 250 251 253 256 258 262 267 273 279 287 293 294 291 290 292 292 292 290 293 297 300 304 310 315 324 327 323 321 318 310 280 258 232 223 212 209 209 207 205 203 203 203 204
247 248 250 251 253 256 259 262 267 275 286 288 291 293 288 290 291 288 286 289 294 297 301 308 315 323 325 321 314 314 310 291 260 229 226 219 214 212 209 207 204 206 208 207
246 248 249 250 251 253 256 259 265 273 280 283 287 280 286 290 291 286 283 284 289 296 300 304 310 319 324 320 317 313 313 291 261 239 223 217 219 216 214 212 210 208 208 209
246 247 247 248 249 250 253 258 264 271 275 278 282 277 280 289 287 285 284 285 289 294 295 298 306 315 320 320 318 318 317 298 270 246 227 222 224 220 220 217 213 209 209 211
244 245 246 245 246 249 253 258 262 266 270 272 275 276 275 281 284 285 286 287 289 291 296 296 303 312 317 318 318 316 312 302 277 244 233 230 228 223 219 215 213 211 211 213
244 245 244 244 245 247 250 253 256 260 265 267 271 272 269 274 279 282 286 288 286 289 296 296 300 307 313 317 321 319 311 302 280 248 236 235 230 222 218 214 213 213 212 214
240 242 242 242 243 245 245 245 245 247 256 262 271 269 271 274 275 277 280 283 285 289 294 297 299 302 306 311 320 324 320 305 287 254 241 237 229 221 218 214 216 215 216 218
237 239 240 240 240 241 241 240 241 244 248 248 261 269 269 272 275 273 275 280 282 283 288 291 299 300 300 304 312 318 319 314 304 267 249 237 231 224 219 217 219 223 225 223
233 237 239 239 240 240 239 239 240 241 245 250 259 266 264 270 273 271 270 274 275 277 279 281 290 295 297 299 303 308 309 307 302 280 261 246 237 225 218 219 223 224 226 227
232 235 238 238 239 240 240 240 241 241 242 243 253 262 262 263 266 265 264 265 268 271 272 277 284 290 293 294 295 295 298 292 286 279 261 248 237 224 221 222 223 225 228 231
230 232 235 238 238 237 238 238 239 239 243 242 238 253 260 258 258 259 258 258 259 262 267 273 279 285 287 288 289 291 293 291 279 271 259 249 240 231 226 225 227 230 231 233
227 229 231 234 237 237 237 237 236 235 239 241 240 248 256 255 255 257 255 254 256 259 265 269 274 278 279 283 284 286 288 288 277 266 263 254 245 240 235 232 233 236 238 240
225 227 227 230 240 240 237 237 235 234 234 241 239 240 252 253 254 256 255 254 257 258 260 265 270 272 274 278 279 282 283 283 274 262 260 256 247 242 239 239 239 241 245 245
223 225 226 224 227 232 234 234 234 234 231 234 242 244 248 252 255 257 257 257 260 260 260 263 267 269 273 276 275 277 278 275 272 264 257 255 251 247 245 244 245 247 249 251
222 224 225 227 230 232 232 232 233 233 232 234 239 247 249 252 255 258 258 259 260 259 259 263 265 267 271 273 273 273 273 269 267 264 257 254 253 251 250 251 251 252 254 254
222 222 224 228 229 231 232 232 232 234 235 237 242 248 250 251 253 254 256 256 259 258 257 259 261 265 267 269 270 274 274 269 266 263 260 258 256 253 253 255 255 255 257 258
221 222 223 225 227 229 233 232 232 234 236 238 241 247 249 249 251 253 254 254 257 258 258 258 260 263 266 267 270 273 274 271 267 265 263 261 260 258 257 257 256 256 257 258
221 222 223 225 229 232 235 233 233 236 240 242 245 248 251 252 254 255 255 254 254 255 256 257 260 263 266 268 270 271 271 270 268 266 264 263 262 262 262 261 261 261 261 260
222 223 225 226 226 232 239 235 235 238 241 242 246 250 251 252 255 255 254 254 255 255 255 257 260 262 265 267 268 271 270 269 269 268 267 267 265 264 264 264 263 263 264 261
222 224 226 228 229 234 238 238 236 238 241 242 245 247 251 253 254 254 254 255 254 255 255 257 259 260 262 264 266 268 268 267 268 268 269 269 266 265 265 264 262 261 263 264
222 226 228 230 232 237 239 238 236 238 242 245 247 249 251 253 253 254 256 256 254 255 255 257 258 260 261 264 265 266 265 266 267 267 268 269 268 266 265 265 261 262 264 263
222 224 227 230 232 236 239 239 238 240 242 245 247 250 250 252 253 254 255 254 253 254 256 257 258 260 262 264 265 264 265 265 267 268 267 268 269 267 265 264 261 263 263 264
223 225 229 231 234 237 238 237 238 239 240 243 247 249 251 253 253 252 253 253 253 255 256 258 259 259 261 262 262 263 264 264 266 269 269 268 269 267 265 265 265 266 267 266
225 226 229 231 232 234 235 235 238 240 242 244 246 248 249 250 251 251 252 253 254 254 256 257 259 259 260 260 260 262 265 266 267 269 271 269 268 267 265 263 264 266 267 266
224 226 228 229 230 232 234 235 237 239 241 243 245 246 248 250 251 251 251 251 252 252 253 254 257 257 258 259 260 263 266 268 269 270 272 270 269 268 267 263 263 265 268 269
Height
5884 5886 5887 5889 5890 5891 5892 5892 5892 5892 5892 5893 5893 5892 5892 5891 5890 5889 5888 5887 5886 5885 5883 5881 5879 5876 5873 5871 5868 5867 5866 5865 5865 5866 5867 5869 5871 5873 5875 5877 5879 5882 5884 5887
5880 5882 5883 5884 5886 5887 5888 5889 5889 5889 5890 5890 5890 5890 5889 5888 5888 5887 5886 5885 5884 5883 5881 5879 5877 5874 5871 5869 5867 5865 5865 5864 5864 5865 5866 5867 5869 5871 5873 5875 5878 5880 5883 5885
5874 5877 5878 5880 5882 5883 5884 5885 5886 5886 5887 5887 5888 5888 5887 5885 5885 5884 5883 5883 5881 5880 5879 5877 5875 5873 5870 5868 5866 5865 5863 5862 5862 5863 5864 5865 5867 5869 5872 5874 5876 5879 5881 5884
5868 5871 5873 5875 5877 5879 5880 5881 5882 5883 5884 5885 5886 5887 5884 5883 5882 5881 5880 5880 5879 5878 5876 5875 5873 5871 5869 5866 5865 5863 5861 5860 5860 5861 5862 5863 5865 5867 5869 5872 5874 5876 5879 5882
5863 5865 5868 5870 5873 5874 5875 5877 5878 5879 5881 5882 5882 5883 5884 5880 5879 5878 5877 5877 5876 5875 5874 5873 5871 5869 5867 5865 5864 5862 5860 5860 5859 5860 5860 5862 5863 5865 5867 5869 5872 5875 5877 5880
5856 5859 5862 5865 5867 5869 5871 5873 5875 5876 5877 5878 5879 5880 5880 5878 5876 5876 5875 5874 5873 5873 5871 5870 5869 5867 5866 5864 5862 5861 5859 5859 5858 5858 5859 5860 5861 5863 5865 5867 5870 5873 5875 5878
5850 5854 5856 5859 5862 5864 5867 5870 5872 5873 5874 5875 5874 5875 5876 5874 5873 5872 5872 5871 5871 5870 5869 5868 5867 5866 5864 5863 5861 5860 5858 5857 5857 5857 5858 5858 5859 5861 5863 5865 5868 5871 5873 5876
5845 5848 5851 5854 5857 5859 5862 5865 5869 5871 5873 5873 5870 5871 5872 5870 5870 5869 5869 5869 5868 5868 5867 5866 5865 5864 5863 5862 5860 5859 5857 5856 5855 5856 5856 5857 5858 5859 5861 5863 5866 5868 5871 5873
5839 5842 5845 5848 5851 5854 5856 5859 5863 5866 5867 5869 5868 5867 5867 5866 5866 5866 5866 5866 5866 5865 5864 5864 5863 5862 5861 5860 5859 5858 5857 5856 5855 5855 5855 5855 5856 5857 5859 5861 5863 5866 5868 5871
5832 5836 5838 5841 5844 5848 5851 5854 5857 5860 5862 5864 5865 5864 5865 5863 5863 5863 5863 5863 5863 5863 5862 5862 5861 5860 5859 5859 5858 5857 5856 5855 5854 5854 5854 5854 5854 5855 5857 5859 5861 5863 5866 5868
5826 5830 5833 5836 5839 5842 5846 5849 5851 5855 5858 5861 5863 5864 5860 5860 5860 5860 5860 5861 5861 5860 5860 5859 5859 5858 5857 5857 5856 5856 5855 5854 5854 5853 5853 5853 5853 5853 5855 5857 5859 5861 5863 5865
5820 5824 5827 5830 5833 5836 5840 5843 5846 5850 5852 5854 5858 5862 5856 5856 5856 5857 5857 5858 5858 5858 5858 5857 5857 5856 5856 5855 5855 5854 5854 5853 5852 5852 5851 5851 5852 5852 5853 5855 5857 5858 5860 5861
5813 5818 5822 5825 5829 5832 5834 5838 5841 5845 5848 5849 5853 5857 5852 5852 5853 5853 5854 5854 5855 5855 5855 5855 5854 5854 5853 5853 5853 5852 5852 5851 5850 5850 5850 5850 5850 5851 5852 5853 5854 5856 5857 5858
5808 5812 5819 5824 5825 5826 5829 5833 5836 5839 5842 5845 5848 5849 5848 5848 5849 5849 5850 5851 5851 5852 5852 5852 5852 5851 5851 5850 5850 5850 5849 5849 5848 5848 5848 5847 5848 5848 5849 5850 5851 5853 5853 5854
5802 5807 5811 5816 5819 5822 5824 5827 5830 5834 5837 5841 5843 5843 5844 5844 5845 5845 5846 5847 5847 5848 5848 5848 5848 5848 5848 5847 5847 5846 5846 5846 5845 5845 5845 5845 5845 5846 5846 5847 5848 5849 5850 5851
5796 5801 5806 5809 5813 5816 5819 5822 5825 5828 5831 5834 5836 5838 5838 5839 5840 5841 5842 5843 5843 5843 5844 5844 5844 5844 5844 5844 5843 5843 5842 5842 5842 5842 5842 5842 5842 5843 5843 5844 5844 5845 5845 5846
5790 5796 5801 5804 5808 5810 5813 5817 5820 5823 5826 5829 5831 5833 5833 5834 5835 5837 5837 5838 5838 5839 5839 5840 5840 5840 5840 5840 5840 5839 5839 5839 5838 5838 5838 5839 5839 5839 5840 5840 5840 5840 5841 5841
5784 5789 5794 5799 5802 5805 5810 5811 5814 5817 5820 5823 5825 5826 5828 5829 5830 5831 5832 5833 5833 5833 5834 5835 5835 5835 5835 5835 5835 5835 5835 5835 5834 5834 5834 5835 5835 5835 5835 5835 5835 5835 5836 5836
5777 5782 5787 5792 5795 5799 5801 5805 5809 5812 5814 5816 5818 5820 5822 5823 5824 5825 5826 5827 5828 5828 5829 5829 5830 5830 5830 5830 5830 5830 5830 5830 5830 5830 5830 5830 5830 5830 5830 5830 5830 5830 5830 5830
5770 5775 5781 5785 5790 5793 5795 5798 5802 5806 5807 5810 5812 5814 5815 5817 5818 5819 5820 5820 5821 5822 5823 5824 5824 5825 5825 5825 5825 5825 5825 5825 5825 5825 5825 5824 5824 5824 5824 5824 5824 5824 5824 5824
5762 5767 5772 5777 5782 5785 5787 5791 5796 5800 5801 5803 5805 5807 5808 5810 5811 5813 5813 5814 5815 5816 5817 5817 5818 5818 5819 5819 5819 5819 5819 5820 5820 5819 5819 5819 5818 5818 5818 5818 5818 5818 5818 5818
5755 5760 5764 5769 5774 5779 5779 5783 5788 5790 5793 5795 5797 5800 5801 5803 5804 5805 5806 5807 5808 5809 5810 5811 5811 5812 5812 5812 5813 5813 5813 5813 5813 5813 5813 5812 5812 5812 5812 5812 5811 5811 5812 5812
5746 5752 5756 5761 5766 5768 5771 5775 5779 5782 5785 5787 5790 5792 5794 5795 5797 5798 5799 5800 5801 5802 5803 5804 5804 5805 5805 5805 5806 5806 5806 5806 5806 5806 5806 5806 5805 5805 5804 5804 5804 5805 5805 5805
5738 5744 5748 5752 5756 5760 5764 5767 5771 5774 5777 5779 5782 5784 5786 5788 5789 5791 5792 5793 5794 5795 5796 5796 5797 5798 5798 5798 5799 5799 5799 5799 5799 5799 5799 5799 5798 5797 5797 5797 5797 5797 5798 5798
5731 5736 5740 5744 5748 5752 5755 5759 5763 5766 5769 5772 5774 5776 5778 5780 5782 5783 5785 5786 5787 5788 5789 5789 5790 5790 5791 5791 5792 5792 5792 5792 5792 5792 5792 5791 5791 5790 5789 5789 5790 5790 5790 5790
5724 5728 5733 5736 5740 5745 5748 5752 5755 5758 5761 5764 5767 5769 5771 5773 5774 5776 5778 5779 5779 5780 5781 5782 5783 5783 5784 5784 5785 5785 5785 5785 5785 5785 5784 5784 5784 5783 5782 5782 5783 5783 5783 5783